[Date Prev][Date Next][Thread Prev][Thread Next] - [Date Index][Thread Index][Author Index]

2 Line ISS Keps 5-17



ISS
1 25544U 98067A   04138.45570009  .00011705  00000-0  10198-3 0  7956
2 25544  51.6259 122.3272 0010833 143.5499 355.2873 15.69468712313491


----
Via the sarex mailing list at AMSAT.ORG courtesy of AMSAT-NA.
To unsubscribe, send "unsubscribe sarex" to Majordomo@amsat.org



AMSAT Top AMSAT Home